User: anonymous   Login
Location: Fiddletown
(38.4917°N, 120.6633°W)
Time: 06:54:41
(UTC-07:00)
Language:

Envisat - Orbit

View from above orbital plane
View from above orbital plane
View from above satellite
View from above satellite

Ground track
Ground track

The orbit data is extracted from the following two-line orbital elements,

1 27386U 02009A   17173.88363073 -.00000037 +00000-0 +16250-5 0  9994
2 27386 098.2304 218.9245 0001111 086.5595 273.5710 14.37897269801894
Epoch (UTC): 22 June 2017 21:12:25
Eccentricity: 0.0001111
inclination: 98.2304°
perigee height: 764 km
apogee height: 766 km
right ascension of ascending node: 218.9245°
argument of perigee: 86.5595°
revolutions per day: 14.37897269
mean anomaly at epoch: 273.5710°
orbit number at epoch: 80189

The dashed part of the orbit path shows where the satellite is in the earth's shadow,  

DLR